TimeEST,TemperatureF,Dew PointF,Humidity,Sea Level PressureIn,VisibilityMPH,Wind Direction,Wind SpeedMPH,Gust SpeedMPH,PrecipitationIn,Events,Conditions,WindDirDegrees,DateUTC
12:53 AM,44.1,28.9,55,30.09,10.0,Calm,Calm,-,N/A,,Overcast,0,2012-11-04 04:53:00
1:53 AM,44.1,28.9,55,30.08,10.0,Calm,Calm,-,N/A,,Overcast,0,2012-11-04 05:53:00
1:53 AM,44.1,28.0,53,30.07,10.0,NW,3.5,-,N/A,,Overcast,320,2012-11-04 06:53:00
2:53 AM,44.1,28.0,53,30.06,10.0,Calm,Calm,-,N/A,,Overcast,0,2012-11-04 07:53:00
3:53 AM,44.1,28.9,55,30.06,10.0,Calm,Calm,-,N/A,,Overcast,0,2012-11-04 08:53:00
4:53 AM,43.0,30.0,60,30.06,10.0,Calm,Calm,-,N/A,,Overcast,0,2012-11-04 09:53:00
5:53 AM,43.0,34.0,71,30.07,10.0,Calm,Calm,-,N/A,,Overcast,0,2012-11-04 10:53:00
6:53 AM,43.0,34.0,71,30.07,10.0,Calm,Calm,-,N/A,,Overcast,0,2012-11-04 11:53:00
7:53 AM,43.0,33.1,68,30.09,10.0,SSW,3.5,-,N/A,,Overcast,200,2012-11-04 12:53:00
8:53 AM,44.1,33.1,65,30.09,10.0,WSW,3.5,-,N/A,,Overcast,250,2012-11-04 13:53:00
9:53 AM,45.0,32.0,60,30.08,10.0,Calm,Calm,-,N/A,,Overcast,0,2012-11-04 14:53:00
10:53 AM,46.0,30.0,54,30.07,10.0,Calm,Calm,-,N/A,,Overcast,0,2012-11-04 15:53:00
11:53 AM,48.0,30.0,50,30.04,10.0,Calm,Calm,-,N/A,,Overcast,0,2012-11-04 16:53:00
12:53 PM,48.0,30.0,50,30.02,10.0,Calm,Calm,-,N/A,,Mostly Cloudy,0,2012-11-04 17:53:00
1:53 PM,51.1,30.9,46,30.00,10.0,Calm,Calm,-,N/A,,Clear,0,2012-11-04 18:53:00
2:53 PM,53.1,30.9,43,29.99,10.0,Calm,Calm,-,N/A,,Clear,0,2012-11-04 19:53:00
3:53 PM,53.1,30.9,43,29.99,10.0,Calm,Calm,-,N/A,,Clear,0,2012-11-04 20:53:00
4:53 PM,51.1,30.0,44,29.99,10.0,Calm,Calm,-,N/A,,Clear,0,2012-11-04 21:53:00
5:53 PM,48.0,32.0,54,30.01,10.0,Calm,Calm,-,N/A,,Clear,0,2012-11-04 22:53:00
6:53 PM,42.1,34.0,73,30.03,10.0,North,3.5,-,N/A,,Clear,360,2012-11-04 23:53:00
7:53 PM,42.1,33.1,70,30.04,10.0,NNE,3.5,-,N/A,,Clear,20,2012-11-05 00:53:00
8:53 PM,39.9,30.0,68,30.04,10.0,NNE,3.5,-,N/A,,Clear,20,2012-11-05 01:53:00
9:53 PM,37.9,28.9,70,30.06,10.0,NNE,3.5,-,N/A,,Clear,20,2012-11-05 02:53:00
10:53 PM,37.9,28.0,68,30.06,10.0,NE,4.6,-,N/A,,Clear,50,2012-11-05 03:53:00